Flag for Morocco Weather past 2 weeks in Casablanca, Morocco

Now
72 °F

Scattered clouds.


Feels Like: 69 °F
Forecast: 72 / 79 °F
Wind: 5 mph from Northeast

Location: Casablanca Airport

Current Time: Aug 22, 2014 at 7:26:30 AM

Latest Report: Aug 22, 2014 at 7:00 AM


Visibility: N/A

Pressure: 29.98 "Hg

Humidity: 88%

Dew point: 68 °F

Location of CasablancaLocation

Historic Weather in Casablanca — Graph

°F

Casablanca temperature yesterday

Maximum temperature yesterday: 79 °F (at 12:00 PM)
Minimum temperature yesterday: 70 °F (at 6:00 AM)
Average temperature yesterday: 74 °F

Past Weeks' High & Low Weather Summary

 TemperatureHumidityPressure
High81 °F (Aug 11, 2:00 PM)94% (Aug 7, 7:00 AM)31.13 "Hg (Aug 7, 7:00 AM)
Low68 °F (Aug 7, 7:00 AM)61% (Aug 14, 1:00 PM)29.77 "Hg (Aug 17, 1:00 PM)
Average74 °F81%29.95 "Hg
* Reported Aug 7 7:00 AM — Aug 22 6:00 AM, Casablanca, Weather by CustomWeather, © 2014

Note: Actual official high and low records may vary slightly from our data, if they occured in-between our weather recording intervals... More about our weather records

Advertising

Casablanca weather history for previous 24 hours

 ConditionsComfort  
Time TempWeatherWind HumidityBarometerVisibility
6:00 AM
Aug 22
72 °FPassing clouds.No wind88%29.98 "HgN/A
5:00 AM72 °FPassing clouds.No wind88%29.98 "HgN/A
1:00 AM72 °FPassing clouds.No wind88%30.01 "HgN/A
12:00 AM72 °FPassing clouds.No wind88%30.04 "HgN/A
11:00 PM
Aug 21
72 °FPassing clouds.5 mph88%30.01 "HgN/A
10:00 PM72 °FPassing clouds.5 mph88%30.01 "HgN/A
9:00 PM73 °FPassing clouds.5 mph83%30.01 "HgN/A
8:00 PM73 °FPassing clouds.9 mph83%29.98 "HgN/A
7:00 PM75 °FSunny.9 mph78%29.98 "Hg10 mi
6:00 PM75 °FSunny.9 mph78%29.98 "Hg10 mi
5:00 PM77 °FSunny.12 mph74%29.98 "Hg10 mi
4:00 PM77 °FSunny.12 mph74%30.01 "Hg10 mi
3:00 PM79 °FSunny.12 mph70%30.01 "Hg10 mi
2:00 PM79 °FSunny.9 mph70%30.01 "Hg10 mi
1:00 PM77 °FSunny.5 mph69%30.01 "Hg10 mi
12:00 PM79 °FSunny.5 mph65%30.01 "Hg10 mi
11:00 AM77 °FSunny.5 mph69%30.01 "Hg10 mi
10:00 AM75 °FPartly sunny.5 mph78%30.01 "HgN/A
9:00 AM72 °FPartly sunny.2 mph88%29.98 "HgN/A
8:00 AM72 °FPartly sunny.2 mph88%29.98 "HgN/A
7:00 AM70 °FPartly sunny.2 mph94%29.98 "HgN/A
Weather by CustomWeather, © 2014

See weather overviewHow to use our weather pages